| time (UTC) | temp F | wind direction | speed knots | gust knots | rain 1hr in | rain 24hr in | rain mn in | humidity % | barometer mb |
| 20260506094857 | 72 | 220 | 5.2 | 0.0 | 0.00 | 0.00 | 0.00 | 41 | 1014.0 |
| 20260506093356 | 72 | 220 | 5.2 | 0.0 | 0.00 | 0.00 | 0.00 | 41 | 1014.0 |
| 20260506091856 | 72 | 220 | 5.2 | 0.0 | 0.00 | 0.00 | 0.00 | 41 | 1014.0 |
| 20260506090356 | 72 | 220 | 5.2 | 0.0 | 0.00 | 0.00 | 0.00 | 41 | 1014.0 |
| 20260506084857 | 68 | 2.6 | 0.0 | 0.00 | 0.00 | 0.00 | 46 | 1014.0 | |
| 20260506083356 | 68 | 2.6 | 0.0 | 0.00 | 0.00 | 0.00 | 46 | 1014.0 | |
| 20260506081853 | 68 | 2.6 | 0.0 | 0.00 | 0.00 | 0.00 | 46 | 1014.0 | |
| 20260506080357 | 68 | 2.6 | 0.0 | 0.00 | 0.00 | 0.00 | 46 | 1014.0 | |
| 20260506073357 | 63 | 140 | 4.3 | 0.0 | 0.00 | 0.00 | 0.00 | 52 | 1014.0 |
| 20260506071856 | 63 | 140 | 4.3 | 0.0 | 0.00 | 0.00 | 0.00 | 52 | 1014.0 |
| 20260506070356 | 63 | 140 | 4.3 | 0.0 | 0.00 | 0.00 | 0.00 | 52 | 1014.0 |
| 20260506061857 | 57 | 120 | 4.3 | 0.0 | 0.00 | 0.00 | 0.00 | 59 | 1014.0 |
| 20260506060358 | 57 | 120 | 4.3 | 0.0 | 0.00 | 0.00 | 0.00 | 59 | 1014.0 |
| 20260506050410 | 50 | 140 | 5.2 | 0.0 | 0.00 | 0.00 | 0.00 | 71 | 1014.0 |
| 20260506044912 | 43 | 0.9 | 0.0 | 0.00 | 0.00 | 0.00 | 81 | 1014.0 | |
| 20260506043400 | 43 | 0.9 | 0.0 | 0.00 | 0.00 | 0.00 | 81 | 1014.0 | |
| 20260506041857 | 43 | 0.9 | 0.0 | 0.00 | 0.00 | 0.00 | 81 | 1014.0 | |
| 20260506040356 | 43 | 0.9 | 0.0 | 0.00 | 0.00 | 0.00 | 81 | 1014.0 | |
| 20260506034857 | 45 | 1.7 | 0.0 | 0.00 | 0.00 | 0.00 | 76 | 1013.0 | |
| 20260506033356 | 45 | 1.7 | 0.0 | 0.00 | 0.00 | 0.00 | 76 | 1013.0 | |
| 20260506031856 | 45 | 1.7 | 0.0 | 0.00 | 0.00 | 0.00 | 76 | 1013.0 | |
| 20260506030356 | 45 | 1.7 | 0.0 | 0.00 | 0.00 | 0.00 | 76 | 1013.0 | |
| 20260506024856 | 46 | 2.6 | 0.0 | 0.00 | 0.00 | 0.00 | 71 | 1013.0 | |
| 20260506023356 | 46 | 2.6 | 0.0 | 0.00 | 0.00 | 0.00 | 71 | 1013.0 | |
| 20260506021854 | 0 | 0.0 | 0.0 | 0.00 | 0.00 | 0.00 | |||
| 20260506020356 | 0 | 0.0 | 0.0 | 0.00 | 0.00 | 0.00 | |||
| 20260506014856 | 48 | 2.6 | 0.0 | 0.00 | 0.00 | 0.00 | 66 | 1013.0 | |
| 20260506013356 | 48 | 2.6 | 0.0 | 0.00 | 0.00 | 0.00 | 66 | 1013.0 | |
| 20260506011857 | 48 | 2.6 | 0.0 | 0.00 | 0.00 | 0.00 | 66 | 1013.0 | |
| 20260506010356 | 48 | 2.6 | 0.0 | 0.00 | 0.00 | 0.00 | 66 | 1013.0 | |
| 20260506004854 | 48 | 2.6 | 0.0 | 0.00 | 0.00 | 0.00 | 66 | 1013.0 | |
| 20260506003520 | 48 | 140 | 4.3 | 0.0 | 0.00 | 0.00 | 0.00 | 66 | 1013.0 |
| 20260506001857 | 48 | 140 | 4.3 | 0.0 | 0.00 | 0.00 | 0.00 | 66 | 1013.0 |
| 20260506000357 | 48 | 140 | 4.3 | 0.0 | 0.00 | 0.00 | 0.00 | 66 | 1013.0 |
| 20260505234857 | 0 | 0.0 | 0.0 | 0.00 | 0.00 | 0.00 | |||
| 20260505233356 | 0 | 0.0 | 0.0 | 0.00 | 0.00 | 0.00 | |||
| 20260505231856 | 0 | 0.0 | 0.0 | 0.00 | 0.00 | 0.00 | |||
| 20260505230357 | 0 | 0.0 | 0.0 | 0.00 | 0.00 | 0.00 | |||
| 20260505224857 | 54 | 310 | 2.6 | 0.0 | 0.00 | 0.00 | 0.00 | 51 | 1013.0 |
| 20260505223356 | 54 | 310 | 2.6 | 0.0 | 0.00 | 0.00 | 0.00 | 51 | 1013.0 |
| 20260505221854 | 54 | 310 | 2.6 | 0.0 | 0.00 | 0.00 | 0.00 | 51 | 1013.0 |
| 20260505220357 | 54 | 310 | 2.6 | 0.0 | 0.00 | 0.00 | 0.00 | 51 | 1013.0 |
| 20260505214857 | 54 | 310 | 2.6 | 0.0 | 0.00 | 0.00 | 0.00 | 51 | 1013.0 |
| 20260505213357 | 54 | 320 | 1.7 | 0.0 | 0.00 | 0.00 | 0.00 | 51 | 1013.0 |
| 20260505211856 | 54 | 320 | 1.7 | 0.0 | 0.00 | 0.00 | 0.00 | 51 | 1013.0 |
| 20260505210357 | 54 | 320 | 1.7 | 0.0 | 0.00 | 0.00 | 0.00 | 51 | 1013.0 |
| 20260505204858 | 54 | 320 | 1.7 | 0.0 | 0.00 | 0.00 | 0.00 | 51 | 1013.0 |
| 20260505203356 | 57 | 320 | 2.6 | 0.0 | 0.00 | 0.00 | 0.00 | 44 | 1012.0 |
| 20260505201927 | 57 | 320 | 2.6 | 0.0 | 0.00 | 0.00 | 0.00 | 44 | 1012.0 |
| 20260505200357 | 57 | 320 | 2.6 | 0.0 | 0.00 | 0.00 | 0.00 | 44 | 1012.0 |
| 20260505194856 | 63 | 2.6 | 0.0 | 0.00 | 0.00 | 0.00 | 37 | 1012.0 | |
| 20260505193356 | 63 | 2.6 | 0.0 | 0.00 | 0.00 | 0.00 | 37 | 1012.0 | |
| 20260505191856 | 63 | 2.6 | 0.0 | 0.00 | 0.00 | 0.00 | 37 | 1012.0 | |
| 20260505190356 | 63 | 2.6 | 0.0 | 0.00 | 0.00 | 0.00 | 37 | 1012.0 | |
| 20260505184857 | 68 | 160 | 2.6 | 0.0 | 0.00 | 0.00 | 0.00 | 33 | 1012.0 |
| 20260505183357 | 68 | 160 | 2.6 | 0.0 | 0.00 | 0.00 | 0.00 | 33 | 1012.0 |
| 20260505181854 | 68 | 160 | 2.6 | 0.0 | 0.00 | 0.00 | 0.00 | 33 | 1012.0 |
| 20260505180357 | 68 | 160 | 2.6 | 0.0 | 0.00 | 0.00 | 0.00 | 33 | 1012.0 |
| 20260505174851 | 73 | 170 | 5.2 | 0.0 | 0.00 | 0.00 | 0.00 | 27 | 1012.0 |
| 20260505173356 | 73 | 170 | 5.2 | 0.0 | 0.00 | 0.00 | 0.00 | 27 | 1012.0 |
| 20260505171856 | 73 | 170 | 5.2 | 0.0 | 0.00 | 0.00 | 0.00 | 27 | 1012.0 |
| 20260505170357 | 73 | 170 | 5.2 | 0.0 | 0.00 | 0.00 | 0.00 | 27 | 1012.0 |
| 20260505164856 | 77 | 150 | 7.0 | 0.0 | 0.00 | 0.00 | 0.00 | 18 | 1012.0 |
| 20260505163357 | 77 | 150 | 7.0 | 0.0 | 0.00 | 0.00 | 0.00 | 18 | 1012.0 |
| 20260505161857 | 77 | 150 | 7.0 | 0.0 | 0.00 | 0.00 | 0.00 | 18 | 1012.0 |
| 20260505160357 | 77 | 150 | 7.0 | 0.0 | 0.00 | 0.00 | 0.00 | 18 | 1012.0 |
| 20260505153357 | 79 | 130 | 8.7 | 0.0 | 0.00 | 0.00 | 0.00 | 20 | 1012.0 |
| 20260505151905 | 79 | 130 | 8.7 | 0.0 | 0.00 | 0.00 | 0.00 | 20 | 1012.0 |
| 20260505150357 | 79 | 130 | 8.7 | 0.0 | 0.00 | 0.00 | 0.00 | 20 | 1012.0 |
| 20260505140356 | 79 | 110 | 6.1 | 0.0 | 0.00 | 0.00 | 0.00 | 23 | 1013.0 |
| 20260505124857 | 77 | 2.6 | 0.0 | 0.00 | 0.00 | 0.00 | 24 | 1015.0 | |
| 20260505123356 | 77 | 2.6 | 0.0 | 0.00 | 0.00 | 0.00 | 24 | 1015.0 | |
| 20260505121856 | 77 | 2.6 | 0.0 | 0.00 | 0.00 | 0.00 | 24 | 1015.0 | |
| 20260505120408 | 0 | 0.0 | 0.0 | 0.00 | 0.00 | 0.00 | |||
| 20260505114904 | 75 | 2.6 | 0.0 | 0.00 | 0.00 | 0.00 | 27 | 1015.0 | |
| 20260505113427 | 75 | 2.6 | 0.0 | 0.00 | 0.00 | 0.00 | 27 | 1015.0 | |
| 20260505111857 | 75 | 2.6 | 0.0 | 0.00 | 0.00 | 0.00 | 27 | 1015.0 | |
| 20260505110357 | 75 | 2.6 | 0.0 | 0.00 | 0.00 | 0.00 | 27 | 1015.0 | |
| 20260505101857 | 73 | 2.6 | 0.0 | 0.00 | 0.00 | 0.00 | 29 | 1016.0 | |
| 20260505100357 | 73 | 2.6 | 0.0 | 0.00 | 0.00 | 0.00 | 29 | 1016.0 |